Regional Weather Roundup
Issued by NWS Albany, NY

Current Version | Previous Version | Text Only | Print | Product List | Glossary On
Versions: 1 2 3 4 5 6 7 8 9 10 11 12 13 14 15 16 17 18 19 20 21 22 23 24 25 26 27
000 ASUS41 KALY 241410 RWRALY NEW YORK STATE HOURLY WEATHER ROUNDUP NATIONAL WEATHER SERVICE ALBANY NY 1000 AM EDT FRI OCT 24 2014 NOTE: "FAIR" INDICATES FEW OR NO CLOUDS BELOW 12,000 FEET WITH NO SIGNIFICANT WEATHER AND/OR NO OBSTRUCTIONS TO VISIBILITY. NYZ032-033-038>043-046>054-057>066-NYZ062>081-241500- EAST CITY SKY/WX TMP DP RH WIND PRES REMARKS ALBANY DRIZZLE 46 44 93 NE6 29.87R FOG GLENS FALLS CLOUDY 45 43 93 CALM 29.86R FOG POUGHKEEPSIE CLOUDY 51 45 79 N3 29.82S NEWBURGH PTSUNNY 50 46 87 NW6 29.84R MONTGOMERY CLOUDY 54 42 64 NW12 29.82S WHITE PLAINS CLOUDY 51 45 79 NW15 29.80S ISLIP LGT RAIN 51 47 86 NW15 29.77S FOG NEW YORK CITY CLOUDY 54 43 66 NW14 29.82S CENTRAL PARK CLOUDY 54 43 66 NW7 29.85S $$ NYZ005>009-017-018-044>046-055-056-241500- CENTRAL CITY SKY/WX TMP DP RH WIND PRES REMARKS FULTON SUNNY 53 44 71 NW15 29.95S SYRACUSE MOSUNNY 53 43 68 NW15 29.94F ROME CLOUDY 49 43 80 W9 29.93F ELMIRA CLOUDY 52 43 71 W8 29.96S BINGHAMTON MOSUNNY 49 42 77 NW16G25 29.92R MONTICELLO CLOUDY 46 43 87 NW13G29 29.86S $$ NYZ026>034-041>043-241500- NORTH CITY SKY/WX TMP DP RH WIND PRES REMARKS WATERTOWN MOSUNNY 53 40 61 N6 29.94F FORT DRUM NOT AVBL MASSENA CLOUDY 49 44 83 CALM 29.94R SARANAC LAKE CLOUDY 41 39 93 N6 29.86F PLATTSBURGH CLOUDY 46 42 86 NW12 29.88S $$ NYZ001>004-010>016-019>021-241500- WEST CITY SKY/WX TMP DP RH WIND PRES REMARKS NIAGARA FALLS PTSUNNY 47 43 86 NW9 30.04R BUFFALO MOSUNNY 47 41 80 W5 30.04S DUNKIRK MOSUNNY 50 41 71 W14 30.07R JAMESTOWN SUNNY 45 39 81 NW7 30.05S WELLSVILLE SUNNY 46 39 76 NW9 30.01F ROCHESTER MOSUNNY 49 43 80 W8 30.01S PENN YAN SUNNY 53 39 59 VRB6 29.98R $$ KEY WCI = WIND CHILL INDEX VSB = VISIBILITY HX = HEAT INDEX $$

USA.gov is the U.S. government's official web portal to all federal, state and local government web resources and services.